Spokane, WA

6:56 AM PST on February 09, 2016 (GMT -0800)
Spokane International

Weather History for KGEG - March, 2011

Change the Weather History Date:

Thursday, March 24, 2011

  Actual Average Record
Temperature  
Mean Temperature 47 °F 43 °F  
Max Temperature 55 °F 52 °F 68 °F (1939)
Min Temperature 38 °F 34 °F 11 °F (1965)
Degree Days  
Heating Degree Days 18 22  
Month to date heating degree days 637 616  
Since 1 July heating degree days 5515 5445  
Cooling Degree Days 0 0  
Month to date cooling degree days 0 0  
Year to date cooling degree days 0 0  
Moisture  
Dew Point 32 °F    
Average Humidity 68    
Maximum Humidity 86    
Minimum Humidity 50    
Precipitation  
Precipitation 0.02 in 0.05 in 0.57 in (1962)
Month to date precipitation 2.31 1.25  
Year to date precipitation 5.88 4.37  
Snow  
Snow T in 0.10 in 3.40 in (1962)
Month to date snowfall 2.7 2.8  
Since 1 July snowfall 67.3 43.1  
Snow Depth 0.00 in    
Sea Level Pressure  
Sea Level Pressure 29.58 in    
Wind  
Wind Speed 9 mph (ENE)    
Max Wind Speed 17 mph    
Max Gust Speed 23 mph    
Visibility 10 miles    
Events Rain    
T = Trace of Precipitation, MM = Missing Value Source: NWS Daily Summary

Daily Weather History Graph

Daily Weather History Graph

Search for Another Location

Airport or City:

Trip Planner

Search our weather history database for the weather conditions in past years. The results will help you decide how hot, cold, wet, or windy it might be!

Date:

Astronomy

Mar. 24, 2011 Rise Set
Actual Time 6:45 AM PDT 7:08 PM PDT
Civil Twilight 6:14 AM PDT 7:39 PM PDT
Nautical Twilight 5:38 AM PDT 8:15 PM PDT
Astronomical Twilight 5:00 AM PDT 8:53 PM PDT
Moon 12:54 AM PDT (3/24) 9:24 AM PDT (3/24)
Length of Visible Light 13h 24m
Length of Day
12h 23m
Waning Gibbous, 68% of the Moon is Illuminated
Mar 24
Waning Gibbous
Mar 26
Last Quarter
Apr 3
New
Apr 11
First Quarter
Apr 17
Full

Hourly Weather History & Observations

Time (PDT) Temp. Windchill Dew Point Humidity Pressure Visibility Wind Dir Wind Speed Gust Speed Precip Events Conditions
12:53 AM 39.9 °F 33.4 °F 27.0 °F 60% 29.65 in 10.0 mi NE 10.4 mph - N/A   Overcast
1:53 AM 37.9 °F 32.1 °F 26.1 °F 62% 29.63 in 10.0 mi NE 8.1 mph - N/A   Overcast
2:53 AM 39.9 °F 33.4 °F 26.1 °F 58% 29.60 in 10.0 mi NE 10.4 mph - N/A   Overcast
3:53 AM 41.0 °F 33.9 °F 25.0 °F 53% 29.58 in 10.0 mi ENE 12.7 mph - N/A   Overcast
4:53 AM 39.9 °F 33.4 °F 25.0 °F 55% 29.58 in 10.0 mi ENE 10.4 mph - N/A   Overcast
5:53 AM 39.9 °F 32.5 °F 26.1 °F 58% 29.57 in 10.0 mi ENE 12.7 mph - N/A   Overcast
6:53 AM 39.9 °F 32.9 °F 26.1 °F 58% 29.59 in 10.0 mi ENE 11.5 mph - N/A   Overcast
7:53 AM 39.9 °F 33.9 °F 30.0 °F 68% 29.59 in 10.0 mi ENE 9.2 mph - 0.00 in Rain Light Rain
8:53 AM 41.0 °F 33.9 °F 32.0 °F 70% 29.59 in 10.0 mi ENE 12.7 mph - 0.00 in Rain Light Rain
9:10 AM 41.0 °F 33.5 °F 32.0 °F 70% 29.57 in 10.0 mi ENE 13.8 mph - 0.00 in   Overcast
9:53 AM 41.0 °F 34.7 °F 33.1 °F 73% 29.59 in 8.0 mi ENE 10.4 mph - 0.00 in Rain Light Rain
10:14 AM 42.8 °F 36.6 °F 33.8 °F 70% 29.57 in 10.0 mi ENE 11.5 mph - 0.00 in Rain Light Rain
10:53 AM 42.1 °F 34.9 °F 30.9 °F 65% 29.59 in 10.0 mi ENE 13.8 mph - 0.00 in   Overcast
11:53 AM 44.1 °F 39.5 °F 32.0 °F 63% 29.59 in 10.0 mi NE 8.1 mph - N/A   Overcast
12:53 PM 46.9 °F - 33.1 °F 59% 29.58 in 10.0 mi NE 9.2 mph - N/A   Mostly Cloudy
1:53 PM 51.1 °F - 34.0 °F 52% 29.57 in 10.0 mi Variable 6.9 mph - N/A   Mostly Cloudy
2:53 PM 52.0 °F - 33.1 °F 49% 29.56 in 10.0 mi NE 9.2 mph - N/A   Mostly Cloudy
3:53 PM 52.0 °F - 33.1 °F 49% 29.55 in 10.0 mi NNE 8.1 mph - 0.00 in Rain Light Rain
4:53 PM 52.0 °F - 33.1 °F 49% 29.54 in 10.0 mi NE 6.9 mph - 0.00 in   Mostly Cloudy
5:53 PM 52.0 °F - 33.1 °F 49% 29.54 in 10.0 mi East 8.1 mph - 0.00 in Rain Light Rain
6:11 PM 51.8 °F - 33.8 °F 50% 29.54 in 10.0 mi SSE 13.8 mph 21.9 mph 0.00 in Rain Small Hail
6:26 PM 46.4 °F 40.4 °F 37.4 °F 71% 29.55 in 7.0 mi SSE 13.8 mph 20.7 mph 0.01 in Rain Light Rain
6:53 PM 45.0 °F 40.6 °F 39.0 °F 80% 29.56 in 10.0 mi East 8.1 mph - 0.02 in Rain Light Rain
7:53 PM 44.1 °F 40.1 °F 37.9 °F 79% 29.56 in 10.0 mi ENE 6.9 mph - 0.00 in   Mostly Cloudy
10:53 PM 42.1 °F 37.7 °F 37.9 °F 85% 29.57 in 10.0 mi North 6.9 mph - N/A   Mostly Cloudy
11:53 PM 41.0 °F 38.0 °F 37.9 °F 89% 29.56 in 10.0 mi NNE 4.6 mph - N/A   Overcast